Location: B?dargowo
(53.3916°N, 14.4413°E)
Time: 22:29:42
(UTC+00:00)

Cosmos 540 - Visible Passes

Search period start: 26 February 2024 00:00
Search period end: 07 March 2024 00:00
Orbit: 756 x 781 km, 74.1° (Epoch: 25 February)

Date Brightness Start Highest point End Pass type
(mag) Time Alt. Az. Time Alt. Az. Time Alt. Az.
26 Feb 7.7 02:15:08 17° SE 02:17:01 20° E 02:20:45 10° NE visible
26 Feb 5.4 03:55:27 25° SW 03:58:30 77° WNW 04:03:46 10° NNE visible
27 Feb 8.1 01:39:27 12° ESE 01:40:33 13° E 01:42:47 10° ENE visible
27 Feb 5.6 03:19:46 39° S 03:21:40 72° ESE 03:26:53 10° NNE visible
27 Feb 6.6 05:00:04 11° WSW 05:04:17 26° NW 05:08:40 10° N visible
28 Feb 6.3 02:43:59 42° SE 02:44:55 47° ESE 02:49:54 10° NE visible
28 Feb 6.1 04:24:17 21° WSW 04:27:08 36° NW 04:31:59 10° NNE visible
29 Feb 7.0 02:08:07 30° ESE 02:08:15 30° ESE 02:12:47 10° NE visible
29 Feb 5.7 03:48:25 37° WSW 03:50:06 52° WNW 03:55:14 10° NNE visible
01 Mar 7.7 01:32:12 20° E 01:32:12 20° E 01:35:24 10° NE visible
01 Mar 5.3 03:12:29 66° WSW 03:13:10 77° WNW 03:18:26 10° NNE visible
01 Mar 7.0 04:52:47 12° W 04:56:09 20° NW 04:59:58 10° N visible
02 Mar 8.2 00:56:14 12° E 00:56:14 12° E 00:57:25 10° ENE visible
02 Mar 5.6 02:36:31 70° E 02:36:31 70° E 02:41:33 10° NNE visible
02 Mar 6.6 04:16:48 20° W 04:18:56 26° NW 04:23:20 10° NNE visible
03 Mar 6.5 02:00:29 42° ENE 02:00:29 42° ENE 02:04:34 10° NE visible
03 Mar 6.1 03:40:46 33° WNW 03:41:48 36° NW 03:46:39 10° NNE visible
04 Mar 7.4 01:24:26 26° ENE 01:24:26 26° ENE 01:27:26 10° NE visible
04 Mar 5.7 03:04:42 52° WNW 03:04:45 53° WNW 03:09:54 10° NNE visible
04 Mar 7.3 04:45:04 10° WNW 04:48:07 15° NNW 04:51:10 10° N visible
05 Mar 8.0 00:48:19 16° ENE 00:48:19 16° ENE 00:50:03 10° NE visible
05 Mar 5.7 02:28:36 63° N 02:28:36 63° N 02:33:05 10° NNE visible
05 Mar 7.0 04:08:52 17° WNW 04:10:48 20° NW 04:14:38 10° N visible
06 Mar 6.4 01:52:28 46° NE 01:52:28 46° NE 01:56:12 10° NNE visible
06 Mar 6.6 03:32:45 26° WNW 03:33:34 27° NW 03:38:00 10° NNE visible
